Regional Weather Roundup
Issued by NWS Charleston, SC

Current Version | Previous Version | Graphics & Text | Print | Product List | Glossary On
Versions: 1 2 3 4 5 6 7 8 9 10 11 12 13 14 15 16 17 18 19 20 21 22 23 24 25 26 27 28 29 30 31 32 33 34 35 36 37 38 39 40 41 42 43 44 45 46 47 48 49 50
000
ASUS42 KCHS 180126
RWRCHS

REGIONAL WEATHER ROUNDUP
NATIONAL WEATHER SERVICE CHARLESTON SC
900 PM EDT FRI APR 17 2015

NOTE: "FAIR" INDICATES FEW OR NO CLOUDS BELOW 12,000 FEET WITH NO
SIGNIFICANT WEATHER AND/OR OBSTRUCTIONS TO VISIBILITY.

NOT ALL STATIONS ARE QUALITY CONTROLLED BY THE NATIONAL
WEATHER SERVICE. USE DATA WITH CAUTION...ESPECIALLY
DEWPOINT OBSERVATIONS.

SCZ027-030-031-034>040-042>050-180200-
...SOUTHEAST SOUTH CAROLINA...

CITY           SKY/WX    TMP DP  RH WIND       PRES   REMARKS
N CHARLESTON   CLOUDY    70  67  90 CALM      30.00S
WATERFRONT PRK   N/A     70 N/A N/A N7          N/A
MOUNT PLEASANT FAIR      70  68  94 CALM      30.01R
PINOPOLIS      NOT AVBL
MONCKS CORNER  CLOUDY    70  66  88 CALM      30.01R
SUMMERVILLE    RAIN      68  68 100 CALM      30.03R
BEAUFORT MCAS  CLOUDY    70  67  90 CALM      30.01R
BEAUFORT ARPT  CLOUDY    70  68  94 CALM      30.01R
HILTON HEAD IS CLOUDY    70  68  94 CALM      30.02S
WALTERBORO     LGT RAIN  68  66  94 CALM      30.03R
ALLENDALE      CLOUDY    68  68 100 CALM      30.01S FOG

...SOUTHERN MIDLANDS AND PEE DEE...

CITY           SKY/WX    TMP DP  RH WIND       PRES   REMARKS
GEORGETOWN     NOT AVBL
KINGSTREE      NOT AVBL
ORANGEBURG     CLOUDY    67  65  93 CALM      30.02R FOG
BARNWELL       DRIZZLE   68  66  94 CALM      30.02S
AIKEN          RAIN      64  63  94 CALM      30.06R
MANNING        DRIZZLE   64  63  94 CALM      30.02R
COLUMBIA       LGT RAIN  69  65  86 CALM      30.01R
SUMTER         CLOUDY    68  64  88 NW2       30.00R
FLORENCE       CLOUDY    69  65  86 CALM      30.01R
MYRTLE BEACH   MOCLDY    72  64  78 N5        30.02S
N MYRTLE BEACH CLOUDY    69  67  93 CALM      30.00S

$$

GAZ063-065-086>088-099>101-113>116-118-119-134>141-150-180200-
...SOUTHEAST GEORGIA...

CITY           SKY/WX    TMP DP  RH WIND       PRES   REMARKS
SAVANNAH ARPT  CLOUDY    70  66  87 W3        30.01R
HUNTER AAF     CLOUDY    70  70 100 W6        30.00R
FORT STEWART   CLOUDY    70  66  88 NE5       29.98F
STATESBORO       N/A     66  66 100 CALM      30.01S
SYLVANIA       CLOUDY    66  66 100 CALM      30.02S
CLAXTON        CLOUDY    68  66  94 CALM      30.01R

...CSRA...CENTRAL AND FAR SOUTHEAST GEORGIA...

CITY           SKY/WX    TMP DP  RH WIND       PRES   REMARKS
THOMSON        CLOUDY    66  66 100 CALM      30.07R
AUGUSTA-BUSH   LGT RAIN  65  65 100 CALM      30.02R FOG
AUGUSTA-DANIEL LGT RAIN  67  64  90 CALM      30.02S
SWAINSBORO     CLOUDY    68  68 100 CALM      30.02S
VIDALIA        HVY RAIN  68  66  94 CALM      30.01S
EASTMAN        DRIZZLE   67  67 100 CALM      30.03R
HAZLEHURST     FAIR      69  69 100 CALM      30.00R
ALMA           CLOUDY    69  67  93 E3        29.99R
WAYCROSS       CLOUDY    76  71  85 CALM      30.00R
JESUP          CLOUDY    72  70  94 CALM      30.00S
BAXLEY         FAIR      70  68  94 CALM      30.00R
BRUNSWICK      CLOUDY    70  64  83 CALM      30.01S
SAINT SIMONS   CLOUDY    68  66  93 S3        30.01S

$$

SCZ027-028-034-036>038-045-046-048>050-GAZ119-141-180200-
...LAKE AND SUPPLEMENTAL COASTAL OBSERVATIONS...

STATION/POSITION TIME  TEMP    WIND        PRES    WAVE   SWELL
                       AIR SEA DIR/SP/G            HT/PER HT/PER/DIR
                 (UTC) (F)     (DEG/KT/KT) (MB)    (FT/S) (FT/S/D)
UPR LAKE MARION  NOT AVBL
WINYAH BAY       0045   69        CALM     1015.0R
LAKE MURRAY      0000   66        CALM     1015.9S
ACE BASIN NERRS  NOT AVBL
FORT PULASKI     0100   69 70  240/  3/  5 1016.7R
SAPELO ISLAND    0100   68     140/  3     1016.0S

$$

ANZ835-935-AMZ111-154-330-350-352-354-370-450-454-472-180200-
...C-MAN AND BUOY OBSERVATIONS...

STATION/POSITION TIME  TEMP    WIND        PRES    WAVE   SWELL
                       AIR SEA DIR/SP/G            HT/PER HT/PER/DIR
                 (UTC) (F)     (DEG/KT/KT) (MB)    (FT/S) (FT/S/D)
BUOY 41004       0050   72 75   10/ 10/ 12 1014.6R   5/ 9   3/ 9
BUOY 41008       0050   67 67  210/  4/  6 1016.2R   3/11   3/ 90/11
FOLLY BEACH CMAN 0100   68      CALM  /  1 1015.9R
CAPERS NEARSHORE NOT AVBL
FRIPP NEARSHORE  0000   68      CALM  /  4 1015.1F


STATION/POSITION TIME  TEMP    WIND        PRES    WAVE   SWELL
                       AIR SEA DIR/SP/G            HT/PER HT/PER/DIR
                 (UTC) (F)     (DEG/KT/KT) (MB)    (FT/S) (FT/S/D)
5E ST. MARYS GA  0021      69                N/A     3/11   2/ 70/11
FRYING PAN BUOY  0050   72 74  340/  2/  6 1015.8R   5/ 9   5/100/ 9
BUOY 41025       0050   72 75  140/  4/  8 1016.0S   6/10   5/ 70/10
CAPE LOOKOUT NC  0100   69     100/  3/  3 1016.0R
BUOY 41002       0050   71 72   40/  4/  6 1015.6R   7/ 9   7/ 60/ 9
BUOY 41010       0020   76 79  120/  4/  4 1016.0F
ST AUGUSTINE FL  0100   69 69   40/  4/  4 1016.6F


$$


USA.gov is the U.S. government's official web portal to all federal, state and local government web resources and services.